星链-1659 (STARLINK-1659 )

导读 | 星芒AI

STARLINK-1659 是 SpaceX 星链计划中的一颗低轨通信卫星,属于星链卫星群的第 16 批次(v1.5 版本)。该卫星于 2022 年 11 月发射,旨在为全球用户提供高速互联网服务。它运行在约 550 公里的轨道高度,配备先进相控阵天线和激光通信系统,以提升网络连接效率和稳定性。作为星链计划的重要组成部分,STARLINK-1659 有助于扩大覆盖范围,特别是在偏远和网络基础设施薄弱的地区。

基本信息
目录编号:
46534
目录名称:
STARLINK-1659
国际标识:
2020-070C
轨道中心:
EARTH
卫星名称:
星链-1659
卫星全名:
星链-1659 (STARLINK-1659 )
卫星状态:
已陨落 最后检测时间 2025-05-06
发射日期:
2020-10-06 UTC
国别 :
美国 (US)
星等 :
--
轨道信息
数据来源 国际轨道数据
星历时间: 2025-05-06T15:29:35+0800
轨道信息已过期224天
半长轴: 6531.592km
偏心率: 0.0003797
轨道倾角: 53.022°
近地点辐角 301.239°
升交点赤经 54.981°
平近点角 199.391°
近地点: 150.976km
远地点: 155.938km
周期: 87.556分钟
每日圈数: 16.44653
详细信息
固有亮度:
5
最大亮度:
2.5
卫星平台:
Starlink V1.0
覆盖范围:
全球
运营商:
太空探索技术公司
运营商所在国:
美国
制造商(研发单位):
太空探索技术公司
制造商所在国:
美国
使用方式:
暂无
卫星简介
星链(Starlink)计划是由太空探索技术公司(SpaceX)提出的一个巨型低轨卫星互联网星座项目,计划在2019年至2024年间在太空搭建由约1.2万颗卫星组成的“星链”网络,其中1584颗将部署在地球上空550千米处的近地轨道,并从2020年开始工作。该卫星仍在工作。